View from above orbital plane
|
View from above satellite
|
Ground track
|
The orbit data is extracted from the following two-line orbital elements,
1 38341U 12025E 21062.81899045 .00000356 00000-0 48967-4 0 9996
2 38341 98.5225 241.0900 0056493 118.3316 242.3611 14.84179940475831
Epoch (UTC): | 03 March 2021 19:39:20 |
Eccentricity: | 0.0056493 |
inclination: | 98.5225° |
perigee height: | 576 km |
apogee height: | 655 km |
right ascension of ascending node: | 241.0900° |
argument of perigee: | 118.3316° |
revolutions per day: | 14.84179940 |
mean anomaly at epoch: | 242.3611° |
orbit number at epoch: | 47583 |
The dashed part of the orbit path shows where the satellite is in the earth's shadow,
|
|